GW7103 Weather Reports


time (UTC)temp
F
wind
direction
speed
knots
gust
knots
rain 1hr
in
rain 24hr
in
rain mn
in
humidity
%
barometer
mb
20260507114504 44 340 0.0 0.0 0.00 1.32 0.15 91 1006.0
20260507113011 44 340 0.0 1.7 0.00 1.32 0.15 90 1006.2
20260507111510 43 339 0.9 1.7 0.00 1.32 0.15 88 1006.3
20260507110014 42 339 0.0 1.7 0.00 1.32 0.15 91 1006.1
20260507104503 42 339 0.0 0.0 0.00 1.32 0.15 92 1005.9
20260507103004 43 339 1.7 3.5 0.00 1.32 0.15 87 1005.9
20260507101508 42 281 0.0 0.9 0.00 1.32 0.15 91 1005.7
20260507100012 42 281 0.0 2.6 0.00 1.32 0.15 90 1005.9
20260507094516 42 294 0.9 2.6 0.00 1.32 0.15 92 1005.9
20260507093004 41 300 0.9 1.7 0.00 1.32 0.15 93 1005.3
20260507091506 41 300 0.0 1.7 0.00 1.32 0.15 92 1004.8
20260507090013 42 300 1.7 2.6 0.00 1.32 0.15 90 1005.5
20260507084519 42 314 0.9 1.7 0.00 1.32 0.15 90 1005.3
20260507083022 43 50 0.0 1.7 0.00 1.32 0.15 91 1005.3
20260507081505 43 45 0.0 1.7 0.00 1.32 0.15 91 1005.1
20260507080011 43 106 0.0 1.7 0.00 1.32 0.15 90 1005.2
20260507074511 44 355 0.0 2.6 0.00 1.32 0.15 90 1005.0
20260507073020 44 266 0.0 4.3 0.01 1.32 0.15 90 1004.7
20260507071525 45 325 0.9 3.5 0.02 1.32 0.15 92 1004.5
20260507070014 44 345 0.0 1.7 0.05 1.32 0.15 93 1004.5
20260507064514 44 345 0.0 0.0 0.05 1.32 0.15 92 1004.3
20260507063016 45 345 0.0 1.7 0.04 1.31 0.14 92 1004.8
20260507061522 45 342 0.9 3.5 0.06 1.30 0.13 92 1004.4
20260507060007 45 319 0.9 1.7 0.04 1.27 0.10 90 1004.6
20260507054511 46 25 0.0 2.6 0.05 1.27 0.10 91 1004.1
20260507053014 46 325 0.0 1.7 0.06 1.27 0.10 93 1004.0
20260507051517 46 47 0.0 2.6 0.04 1.24 0.07 93 1004.4
20260507050028 45 333 0.0 7.0 0.06 1.23 0.06 92 1004.8
20260507044507 46 314 1.7 3.5 0.08 1.22 0.05 90 1004.9
20260507043012 47 354 0.9 2.6 0.14 1.21 0.04 92 1004.2
20260507041516 47 331 0.9 2.6 0.17 1.20 0.03 93 1004.5
20260507040019 47 69 0.0 1.7 0.15 1.16 0.00 93 1004.5
20260507034525 48 308 0.0 1.7 0.14 1.15 1.14 93 1004.5
20260507033010 48 322 0.0 2.6 0.12 1.08 1.07 93 1004.2
20260507031512 48 359 0.0 1.7 0.14 1.04 1.03 94 1003.8
20260507030019 49 343 0.0 1.7 0.19 1.03 1.02 94 1003.9
20260507024522 49 314 0.9 1.7 0.24 1.01 1.00 93 1003.9
20260507023026 51 314 0.0 1.7 0.21 0.96 0.95 94 1004.3
20260507021513 50 314 0.0 1.7 0.16 0.90 0.89 94 1004.8
20260507020022 48 314 0.0 2.6 0.10 0.84 0.83 93 1005.1
20260507014523 52 299 1.7 2.6 0.05 0.77 0.76 93 1005.1
20260507013033 52 223 0.9 3.5 0.03 0.75 0.74 93 1005.0
20260507011533 53 202 0.9 3.5 0.02 0.74 0.73 94 1005.2
20260507010019 53 60 0.0 2.6 0.02 0.74 0.73 93 1005.5
20260507004519 53 152 0.0 2.6 0.00 0.72 0.71 94 1005.5
20260507003022 53 207 0.9 2.6 0.01 0.74 0.71 94 1005.5
20260507001533 52 274 0.9 1.7 0.02 0.74 0.71 94 1005.6
20260507000012 52 248 0.0 1.7 0.03 0.74 0.71 94 1005.9
20260506234516 50 283 0.0 1.7 0.04 0.76 0.71 93 1005.9
20260506233021 49 267 2.6 6.1 0.03 0.77 0.70 93 1006.0
20260506231524 53 286 4.3 7.0 0.02 0.76 0.69 92 1006.0
20260506230008 53 269 0.9 6.1 0.01 0.75 0.68 92 1005.8
20260506224513 53 310 0.9 4.3 0.01 0.74 0.67 93 1005.9
20260506223020 53 279 1.7 6.1 0.02 0.74 0.67 93 1006.1
20260506221522 53 167 0.9 1.7 0.04 0.74 0.67 93 1006.1
20260506220008 53 11 0.9 4.3 0.09 0.74 0.67 93 1006.0
20260506214509 53 231 0.0 1.7 0.15 0.73 0.66 93 1006.1
20260506213016 53 72 0.0 2.6 0.18 0.72 0.65 93 1006.3
20260506211523 53 181 0.9 4.3 0.27 0.70 0.63 94 1006.7
20260506210032 52 293 0.9 5.2 0.38 0.65 0.58 94 1006.7
20260506204510 52 291 0.9 1.7 0.35 0.58 0.51 94 1006.8
20260506203015 49 291 3.5 4.3 0.34 0.54 0.47 91 1007.1
20260506201519 51 266 0.0 7.0 0.26 0.43 0.36 93 1006.6
20260506200021 54 295 3.5 4.3 0.13 0.27 0.20 87 1006.6
20260506194526 55 254 0.9 1.7 0.12 0.23 0.16 92 1006.4
20260506193010 55 27 0.0 1.7 0.11 0.20 0.13 92 1006.4
20260506191519 55 139 0.0 1.7 0.08 0.17 0.10 92 1006.8
20260506190020 56 89 0.0 1.7 0.05 0.14 0.07 92 1007.0
20260506184526 56 245 0.9 1.7 0.02 0.11 0.04 91 1007.4
20260506183012 56 245 0.0 1.7 0.00 0.09 0.02 90 1007.7
20260506181514 56 120 0.0 2.6 0.01 0.09 0.02 91 1007.5
20260506180026 54 204 0.0 2.6 0.01 0.09 0.02 91 1007.5
20260506174526 52 267 0.0 1.7 0.02 0.09 0.02 91 1007.6
20260506173031 55 267 0.0 0.9 0.02 0.09 0.02 92 1008.1
20260506171515 53 267 0.9 4.3 0.01 0.08 0.01 90 1008.5
20260506170018 53 266 0.0 0.9 0.01 0.08 0.01 89 1009.0
20260506164520 52 266 0.0 1.7 0.00 0.07 0.00 89 1009.0
20260506163031 52 267 0.0 1.7 0.00 0.07 0.00 86 1009.0
20260506161528 53 267 0.0 1.7 0.00 0.07 0.00 83 1009.4
20260506160016 55 241 0.0 1.7 0.00 0.07 0.00 87 1009.4
20260506154521 56 241 0.0 1.7 0.00 0.07 0.00 81 1009.6
20260506153024 56 149 0.9 2.6 0.00 0.07 0.00 83 1009.4
20260506151529 56 124 0.0 2.6 0.00 0.07 0.00 84 1009.4
20260506150030 55 288 0.0 1.7 0.00 0.07 0.00 84 1009.2
20260506144519 55 85 0.0 1.7 0.00 0.07 0.00 87 1009.4
20260506143027 53 300 0.0 1.7 0.00 0.07 0.00 90 1009.8
20260506141529 52 300 0.0 0.9 0.00 0.07 0.00 89 1010.1
20260506140009 51 300 0.0 1.7 0.00 0.07 0.00 87 1010.3
20260506134515 51 300 0.0 1.7 0.00 0.07 0.00 90 1010.6
20260506133021 50 300 0.0 0.9 0.00 0.07 0.00 89 1010.8
20260506131507 51 300 0.0 1.7 0.00 0.07 0.00 87 1010.7
20260506130007 50 300 0.0 1.7 0.00 0.07 0.00 88 1010.7
20260506124512 52 300 0.0 1.7 0.00 0.07 0.00 91 1010.7
20260506123020 52 141 0.0 0.9 0.00 0.07 0.00 89 1010.8
20260506121509 52 141 0.0 1.7 0.00 0.07 0.00 89 1010.7
20260506120011 51 203 0.0 1.7 0.00 0.07 0.00 90 1011.0